When you browse on this site, cookies collect data to enhance your experience and personalize the content and advertising you see.
Visit our Privacy Policy to learn more. By continuing to use the site, you agree to this use of cookies and data.
  • In Hungary
  • List of Countries
  • For 7 days
  • Water Temperature
  • Satellite Maps
  • Weather Map
  • News
  • Weather Widgets
  • user-avatar
    Login

    Hourly Weather Potosi

    Today, 19 January, Saturday

    Time Temperature Precipitation Wind Pressure Humidity
    00:00 +7°C° 3.2 mm 2 mps 468 mmHg 89%
    01:00 +7°C° 3.2 mm 2 mps 468 mmHg 89%
    02:00 +7°C° 3.2 mm 2 mps 468 mmHg 90%
    03:00 +6°C° 1.6 mm 2 mps 468 mmHg 89%
    04:00 +6°C° 1.6 mm 2 mps 468 mmHg 89%
    05:00 +6°C° 1.6 mm 2 mps 468 mmHg 89%
    06:00 +7°C° 0.3 mm 2 mps 468 mmHg 87%
    07:00 +7°C° 0.3 mm 2 mps 468 mmHg 86%
    08:00 +7°C° 0.3 mm 2 mps 469 mmHg 84%
    09:00 +8°C° 0.1 mm 2 mps 470 mmHg 79%
    10:00 +9°C° 0.1 mm 3 mps 470 mmHg 73%
    11:00 +10°C° 0.1 mm 3 mps 471 mmHg 68%
    12:00 +10°C° 0.4 mm 3 mps 471 mmHg 65%
    13:00 +11°C° 0.4 mm 4 mps 471 mmHg 63%
    14:00 +12°C° 0.4 mm 4 mps 471 mmHg 61%
    15:00 +11°C° 0.4 mm 4 mps 470 mmHg 62%
    16:00 +11°C° 0.4 mm 4 mps 470 mmHg 63%
    17:00 +11°C° 0.4 mm 4 mps 469 mmHg 65%
    18:00 +10°C° 0.2 mm 3 mps 469 mmHg 69%
    19:00 +9°C° 0.2 mm 3 mps 469 mmHg 74%
    20:00 +9°C° 0.2 mm 3 mps 469 mmHg 79%
    21:00 +8°C° 0.1 mm 3 mps 469 mmHg 81%
    22:00 +8°C° 0.1 mm 3 mps 469 mmHg 84%
    23:00 +7°C° 0.1 mm 3 mps 469 mmHg 86%

    Tomorrow, 20 January, Sunday

    Time Temperature Precipitation Wind Pressure Humidity
    00:00 +7°C° 0.1 mm 2 mps 469 mmHg 85%
    01:00 +7°C° 0.1 mm 2 mps 468 mmHg 84%
    02:00 +7°C° 0.1 mm 2 mps 468 mmHg 83%
    03:00 +7°C° 0 mm 2 mps 468 mmHg 84%
    04:00 +7°C° 0 mm 1 mps 468 mmHg 85%
    05:00 +7°C° 0 mm 1 mps 468 mmHg 86%
    06:00 +8°C° 0 mm 1 mps 468 mmHg 80%
    07:00 +8°C° 0 mm 1 mps 469 mmHg 74%
    08:00 +9°C° 0 mm 1 mps 469 mmHg 69%
    09:00 +10°C° 0 mm 1 mps 470 mmHg 61%
    10:00 +12°C° 0 mm 2 mps 471 mmHg 54%
    11:00 +14°C° 0 mm 2 mps 472 mmHg 47%
    12:00 +13°C° 0.1 mm 3 mps 472 mmHg 44%
    13:00 +14°C° 0.1 mm 3 mps 472 mmHg 42%
    14:00 +15°C° 0.1 mm 4 mps 472 mmHg 40%
    15:00 +15°C° 0.2 mm 5 mps 471 mmHg 42%
    16:00 +15°C° 0.2 mm 6 mps 471 mmHg 43%
    17:00 +15°C° 0.2 mm 6 mps 470 mmHg 45%
    18:00 +13°C° 0.1 mm 5 mps 469 mmHg 53%
    19:00 +12°C° 0.1 mm 4 mps 469 mmHg 61%
    20:00 +10°C° 0.1 mm 3 mps 468 mmHg 69%
    21:00 +10°C° 0 mm 3 mps 468 mmHg 72%
    22:00 +9°C° 0 mm 3 mps 469 mmHg 75%
    23:00 +9°C° 0 mm 2 mps 469 mmHg 79%

    Day after tomorrow, 21 January, Monday

    Time Temperature Precipitation Wind Pressure Humidity
    00:00 +9°C° 0 mm 2 mps 468 mmHg 79%
    01:00 +8°C° 0 mm 2 mps 468 mmHg 79%
    02:00 +9°C° 0 mm 1 mps 468 mmHg 79%
    03:00 +9°C° 0 mm 1 mps 467 mmHg 82%
    04:00 +8°C° 0 mm 1 mps 467 mmHg 84%
    05:00 +8°C° 0 mm 1 mps 467 mmHg 86%
    06:00 +9°C° 0 mm 1 mps 468 mmHg 82%
    07:00 +8°C° 0 mm 0 mps 468 mmHg 78%
    08:00 +8°C° 0 mm 0 mps 469 mmHg 74%
    09:00 +11°C° 0 mm 1 mps 470 mmHg 63%
    10:00 +13°C° 0 mm 2 mps 471 mmHg 51%
    11:00 +13°C° 0 mm 3 mps 472 mmHg 40%
    12:00 +14°C° 0 mm 4 mps 472 mmHg 36%
    13:00 +15°C° 0 mm 5 mps 472 mmHg 33%
    14:00 +16°C° 0 mm 6 mps 472 mmHg 30%
    15:00 +16°C° 0 mm 6 mps 471 mmHg 34%
    16:00 +15°C° 0 mm 7 mps 471 mmHg 38%
    17:00 +15°C° 0 mm 7 mps 470 mmHg 42%
    18:00 +13°C° 0.3 mm 6 mps 470 mmHg 51%
    19:00 +12°C° 0.3 mm 5 mps 469 mmHg 60%
    20:00 +10°C° 0.3 mm 4 mps 469 mmHg 69%
    21:00 +10°C° 0.2 mm 4 mps 469 mmHg 72%
    22:00 +9°C° 0.2 mm 3 mps 469 mmHg 74%
    23:00 +9°C° 0.2 mm 2 mps 470 mmHg 77%

    22 January, Tuesday

    Time Temperature Precipitation Wind Pressure Humidity
    00:00 +9°C° 0.1 mm 2 mps 469 mmHg 78%
    01:00 +8°C° 0.1 mm 2 mps 469 mmHg 79%
    02:00 +8°C° 0.1 mm 2 mps 468 mmHg 80%
    03:00 +8°C° 0 mm 2 mps 468 mmHg 81%
    04:00 +7°C° 0 mm 2 mps 468 mmHg 82%
    05:00 +8°C° 0 mm 1 mps 468 mmHg 84%
    06:00 +8°C° 0 mm 1 mps 468 mmHg 79%
    07:00 +9°C° 0 mm 1 mps 469 mmHg 75%
    08:00 +9°C° 0 mm 1 mps 469 mmHg 71%
    09:00 +11°C° 0.1 mm 1 mps 470 mmHg 63%
    10:00 +12°C° 0.1 mm 2 mps 471 mmHg 55%
    11:00 +14°C° 0.1 mm 2 mps 471 mmHg 47%
    12:00 +14°C° 0.2 mm 3 mps 471 mmHg 44%
    13:00 +15°C° 0.2 mm 4 mps 471 mmHg 41%
    14:00 +16°C° 0.2 mm 5 mps 471 mmHg 38%
    15:00 +15°C° 0.3 mm 5 mps 471 mmHg 41%
    16:00 +15°C° 0.3 mm 6 mps 470 mmHg 45%
    17:00 +14°C° 0.3 mm 7 mps 469 mmHg 48%
    18:00 +13°C° 0.1 mm 6 mps 469 mmHg 54%
    19:00 +12°C° 0.1 mm 5 mps 469 mmHg 59%
    20:00 +11°C° 0.1 mm 4 mps 468 mmHg 65%
    21:00 +10°C° 0 mm 4 mps 468 mmHg 67%
    22:00 +10°C° 0 mm 3 mps 469 mmHg 70%
    23:00 +9°C° 0 mm 2 mps 469 mmHg 73%

    23 January, Wednesday

    Time Temperature Precipitation Wind Pressure Humidity
    00:00 +9°C° 0 mm 2 mps 468 mmHg 75%
    01:00 +9°C° 0 mm 1 mps 468 mmHg 78%
    02:00 +9°C° 0 mm 1 mps 468 mmHg 80%
    03:00 +9°C° 0 mm 1 mps 467 mmHg 82%
    04:00 +7°C° 0 mm 0 mps 467 mmHg 84%
    05:00 +7°C° 0 mm 0 mps 467 mmHg 86%
    06:00 +8°C° 0 mm 0 mps 468 mmHg 80%
    07:00 +8°C° 0 mm 0 mps 469 mmHg 74%
    08:00 +10°C° 0 mm 1 mps 469 mmHg 68%
    09:00 +12°C° 0 mm 2 mps 470 mmHg 59%
    10:00 +12°C° 0 mm 3 mps 471 mmHg 49%
    11:00 +14°C° 0 mm 4 mps 472 mmHg 40%
    12:00 +15°C° 0 mm 5 mps 472 mmHg 38%
    13:00 +15°C° 0 mm 6 mps 472 mmHg 37%
    14:00 +16°C° 0 mm 7 mps 472 mmHg 36%
    15:00 +16°C° 0.4 mm 7 mps 471 mmHg 40%
    16:00 +15°C° 0.4 mm 7 mps 470 mmHg 45%
    17:00 +14°C° 0.4 mm 7 mps 470 mmHg 49%
    18:00 +13°C° 0.3 mm 6 mps 469 mmHg 55%
    19:00 +12°C° 0.3 mm 5 mps 469 mmHg 62%
    20:00 +10°C° 0.3 mm 4 mps 469 mmHg 68%
    21:00 +10°C° 0.2 mm 4 mps 469 mmHg 69%
    22:00 +10°C° 0.2 mm 3 mps 469 mmHg 71%
    23:00 +9°C° 0.2 mm 3 mps 469 mmHg 72%

    24 January, Thursday

    Time Temperature Precipitation Wind Pressure Humidity
    00:00 +9°C° 0.1 mm 3 mps 469 mmHg 72%
    01:00 +8°C° 0.1 mm 3 mps 468 mmHg 72%
    02:00 +8°C° 0.1 mm 3 mps 468 mmHg 72%
    03:00 +8°C° 0 mm 2 mps 468 mmHg 73%
    04:00 +7°C° 0 mm 2 mps 468 mmHg 74%
    05:00 +8°C° 0 mm 1 mps 468 mmHg 75%
    06:00 +9°C° 0 mm 1 mps 468 mmHg 73%
    07:00 +9°C° 0 mm 1 mps 469 mmHg 70%
    08:00 +9°C° 0 mm 1 mps 469 mmHg 68%
    09:00 +10°C° 0 mm 3 mps 470 mmHg 59%
    10:00 +12°C° 0 mm 5 mps 471 mmHg 50%
    11:00 +14°C° 0 mm 6 mps 472 mmHg 40%
    12:00 +15°C° 0 mm 7 mps 472 mmHg 39%
    13:00 +15°C° 0 mm 8 mps 472 mmHg 37%
    14:00 +16°C° 0 mm 8 mps 472 mmHg 35%
    15:00 +16°C° 0 mm 8 mps 471 mmHg 37%
    16:00 +15°C° 0 mm 8 mps 470 mmHg 39%
    17:00 +13°C° 0 mm 8 mps 470 mmHg 41%
    18:00 +12°C° 0 mm 7 mps 469 mmHg 45%
    19:00 +11°C° 0 mm 6 mps 469 mmHg 49%
    20:00 +11°C° 0 mm 4 mps 468 mmHg 53%
    21:00 +10°C° 0 mm 4 mps 468 mmHg 57%
    22:00 +10°C° 0 mm 3 mps 468 mmHg 61%
    23:00 +9°C° 0 mm 2 mps 468 mmHg 64%
    Show more